Nome, AK

1:55 AM AKDT on August 30, 2016 (GMT -0800)
Nome

Weather History for PAOM - December, 2010

Change the Weather History Date:

Friday, December 10, 2010

  Actual Average Record
Temperature  
Mean Temperature 7 °F 11 °F  
Max Temperature 16 °F 18 °F 39 °F (1985)
Min Temperature -3 °F - -40 °F (1975)
Degree Days  
Heating Degree Days 58 54  
Month to date heating degree days 537 534  
Since 1 July heating degree days 4287 4632  
Cooling Degree Days 0    
Month to date cooling degree days 0  
Year to date cooling degree days 2  
Moisture  
Dew Point 2 °F    
Average Humidity 0    
Maximum Humidity 0    
Minimum Humidity 0    
Precipitation  
Precipitation 0.00 in 0.04 in 0.94 in (1932)
Month to date precipitation 0.46 0.34  
Year to date precipitation 13.11 16.07  
Snow  
Snow 0.00 in 0.40 in 4.50 in (2011)
Month to date snowfall 7.0 4.2  
Since 1 July snowfall 16.6 21.5  
Snow Depth 8.00 in    
Sea Level Pressure  
Sea Level Pressure 30.20 in    
Wind  
Wind Speed 4 mph (NNW)    
Max Wind Speed 12 mph    
Max Gust Speed 14 mph    
Visibility 10 miles    
Events      
T = Trace of Precipitation, MM = Missing Value Source: NWS Daily Summary

Daily Weather History Graph

Daily Weather History Graph

Search for Another Location

Airport or City:

Trip Planner

Search our weather history database for the weather conditions in past years. The results will help you decide how hot, cold, wet, or windy it might be!

Date:

Astronomy

Dec. 10, 2010 Rise Set
Actual Time 11:48 AM AKST 4:00 PM AKST
Civil Twilight 10:29 AM AKST 5:19 PM AKST
Nautical Twilight 9:19 AM AKST 6:29 PM AKST
Astronomical Twilight 8:19 AM AKST 7:29 PM AKST
Moon 1:47 PM AKST (12/10) 11:02 PM AKST (12/10)
Length of Visible Light 6h 50m
Length of Day
4h 12m
Waxing Crescent, 25% of the Moon is Illuminated
Dec 10
Waxing Crescent
Dec 13
First Quarter
Dec 20
Full
Dec 27
Last Quarter
Jan 4
New

Hourly Weather History & Observations

Time (AKST) Temp. Windchill Dew Point Humidity Pressure Visibility Wind Dir Wind Speed Gust Speed Precip Events Conditions
12:53 AM 7.0 °F -1.7 °F 3.9 °F 87% 30.30 in 10.0 mi NNE 4.6 mph - N/A   Partly Cloudy
1:53 AM 1.9 °F -5.6 °F -0.9 °F 88% 30.29 in 10.0 mi North 3.5 mph - N/A   Partly Cloudy
2:53 AM 7.0 °F 0.1 °F 3.9 °F 87% 30.28 in 10.0 mi WNW 3.5 mph - N/A   Partly Cloudy
3:53 AM 1.9 °F - -0.0 °F 91% 30.26 in 10.0 mi Calm Calm - N/A   Partly Cloudy
4:53 AM 5.0 °F -2.1 °F 1.0 °F 84% 30.25 in 10.0 mi North 3.5 mph - N/A   Partly Cloudy
5:53 AM 10.0 °F -1.9 °F 6.1 °F 84% 30.24 in 10.0 mi NNW 8.1 mph - N/A   Scattered Clouds
6:53 AM 10.9 °F -1.8 °F 8.1 °F 88% 30.23 in 10.0 mi NNW 9.2 mph - N/A   Mostly Cloudy
7:53 AM 10.0 °F -1.9 °F 7.0 °F 87% 30.21 in 10.0 mi NNW 8.1 mph - N/A   Mostly Cloudy
8:53 AM 10.9 °F 1.4 °F 8.1 °F 88% 30.20 in 10.0 mi NW 5.8 mph - N/A   Mostly Cloudy
9:53 AM 9.0 °F - 6.1 °F 88% 30.19 in 10.0 mi Calm Calm - N/A   Scattered Clouds
10:53 AM 10.9 °F - 8.1 °F 88% 30.18 in 10.0 mi Calm Calm - N/A   Mostly Cloudy
11:53 AM 9.0 °F -0.9 °F 5.0 °F 84% 30.17 in 10.0 mi NNE 5.8 mph - N/A   Scattered Clouds
12:53 PM 5.0 °F -2.1 °F 3.0 °F 92% 30.16 in 10.0 mi NNE 3.5 mph - N/A   Scattered Clouds
1:53 PM 3.0 °F - -0.0 °F 87% 30.14 in 10.0 mi Calm Calm - N/A   Scattered Clouds
2:53 PM 3.9 °F -5.3 °F 1.9 °F 91% 30.14 in 10.0 mi North 4.6 mph - N/A   Scattered Clouds
3:53 PM 3.0 °F - 1.0 °F 91% 30.13 in 10.0 mi Calm Calm - N/A   Partly Cloudy
4:53 PM 10.9 °F - 6.1 °F 81% 30.14 in 10.0 mi Calm Calm - N/A   Partly Cloudy
5:53 PM 10.0 °F 1.8 °F 1.9 °F 70% 30.14 in 10.0 mi WNW 4.6 mph - N/A   Partly Cloudy
6:53 PM 10.0 °F -0.9 °F 1.0 °F 67% 30.15 in 10.0 mi WNW 6.9 mph - N/A   Clear
7:53 PM 1.9 °F -7.6 °F -4.0 °F 76% 30.16 in 10.0 mi North 4.6 mph - N/A   Clear
8:53 PM 1.0 °F -12.9 °F -5.1 °F 75% 30.17 in 10.0 mi North 8.1 mph - N/A   Clear
9:53 PM 6.1 °F -5.6 °F -2.9 °F 67% 30.18 in 10.0 mi East 6.9 mph - N/A   Clear
10:53 PM 1.0 °F - -5.1 °F 75% 30.19 in 10.0 mi Calm Calm - N/A   Clear
11:53 PM -0.0 °F -7.9 °F -6.0 °F 76% 30.20 in 10.0 mi NNW 3.5 mph - N/A   Scattered Clouds